Tracking 28125 objects as of 3-Oct-2023
HD Live streaming from Space Station
objects crossing your sky now

ARIANE 5 R/B

Track ARIANE 5 R/B now!


NORAD ID: 40273
Int'l Code: 2014-062C
Perigee: 255.8 km
Apogee: 32,564.7 km
Inclination: 5.9 °
Period: 570.3 minutes
Semi major axis: 22781 km
RCS: Unknown
Launch date: October 16, 2014
Source: France (FR)
Launch site: FRENCH GUIANA (FRGUI)

Note: This is a ROCKET BODY
Your satellite tracking list
Your tracking list is empty




NASA's NSSDC Master Catalog

Two Line Element Set (TLE):
1 40273U 14062C   23274.24097912  .00004628  00000-0  10724-2 0  9997
2 40273   5.9355 170.3063 7091122 152.5816 276.6135  2.52485907 78169
Source of the keplerian elements: AFSPC